GW1652 Weather Reports


time (UTC)temp
F
wind
direction
speed
knots
gust
knots
rain 1hr
in
rain 24hr
in
rain mn
in
humidity
%
barometer
mb
20260509201543 58 326 8.7 15.6 0.00 0.00 0.00 82 1002.1
20260509200041 58 331 7.0 15.6 0.00 0.00 0.00 82 1002.2
20260509194547 58 319 7.0 14.8 0.00 0.00 0.00 82 1002.4
20260509193041 58 321 4.3 11.3 0.00 0.00 0.00 82 1002.5
20260509191546 58 12 7.0 13.9 0.00 0.00 0.00 82 1002.9
20260509190050 58 354 7.0 13.0 0.00 0.00 0.00 82 1003.2
20260509184547 58 326 5.2 14.8 0.00 0.00 0.00 82 1003.5
20260509183104 59 324 7.8 14.8 0.00 0.00 0.00 81 1003.9
20260509181606 59 290 6.1 12.2 0.00 0.00 0.00 80 1003.9
20260509180044 59 317 6.1 12.2 0.00 0.00 0.00 81 1004.1
20260509174543 60 320 5.2 12.2 0.00 0.00 0.00 81 1004.4
20260509173047 60 305 6.1 12.2 0.00 0.00 0.00 81 1004.4
20260509171543 60 5 5.2 10.4 0.00 0.00 0.00 80 1004.3
20260509170042 60 13 6.1 13.0 0.00 0.00 0.00 81 1004.5
20260509164546 60 314 5.2 12.2 0.00 0.00 0.00 81 1004.5
20260509163040 60 331 6.1 13.9 0.00 0.00 0.00 82 1004.6
20260509161547 60 303 9.6 16.5 0.00 0.00 0.00 82 1004.7
20260509160051 60 311 7.8 13.9 0.00 0.00 0.00 81 1004.8
20260509154554 60 322 7.8 15.6 0.00 0.00 0.00 80 1004.9
20260509153044 60 303 7.8 13.0 0.00 0.00 0.00 82 1005.1
20260509151544 60 304 5.2 12.2 0.00 0.00 0.00 82 1005.1
20260509150043 61 330 7.8 13.9 0.00 0.00 0.00 81 1005.2
20260509144542 61 333 6.1 15.6 0.00 0.00 0.00 78 1005.3
20260509143049 61 326 6.1 13.0 0.00 0.00 0.00 78 1005.2
20260509141546 61 326 8.7 13.9 0.00 0.00 0.00 77 1005.1
20260509140051 62 330 7.0 14.8 0.00 0.00 0.00 74 1005.2
20260509134543 63 329 7.8 13.9 0.00 0.00 0.00 70 1005.4
20260509133046 63 333 7.8 15.6 0.00 0.00 0.00 72 1005.4
20260509131546 63 297 8.7 19.1 0.00 0.00 0.00 71 1005.5
20260509130046 64 297 7.0 16.5 0.00 0.00 0.00 68 1005.6
20260509124544 64 314 9.6 21.7 0.00 0.00 0.00 68 1005.8
20260509123043 64 306 9.6 16.5 0.00 0.00 0.00 67 1005.9
20260509121539 64 333 8.7 14.8 0.00 0.00 0.00 69 1006.6
20260509120054 63 275 8.7 16.5 0.00 0.00 0.00 66 1006.9
20260509114548 64 325 10.4 15.6 0.00 0.00 0.00 60 1007.1
20260509113044 65 342 8.7 16.5 0.00 0.00 0.00 64 1007.4
20260509111548 65 324 7.8 14.8 0.00 0.00 0.00 64 1007.9
20260509110042 64 316 6.1 14.8 0.00 0.00 0.00 66 1008.1
20260509104545 64 49 8.7 16.5 0.00 0.00 0.00 64 1008.3
20260509103051 63 291 8.7 13.9 0.00 0.00 0.00 69 1008.3
20260509101551 62 286 7.0 13.9 0.00 0.00 0.00 77 1008.7
20260509100048 62 301 7.0 13.0 0.00 0.00 0.00 80 1009.0
20260509094545 62 28 6.1 12.2 0.00 0.00 0.00 80 1009.0
20260509093056 60 321 5.2 9.6 0.00 0.00 0.00 82 1009.1
20260509091548 59 19 4.3 9.6 0.00 0.00 0.00 84 1009.6
20260509090053 58 320 4.3 10.4 0.00 0.00 0.00 84 1009.9
20260509084553 59 348 4.3 10.4 0.00 0.00 0.00 83 1009.9
20260509083042 59 338 3.5 8.7 0.00 0.00 0.00 83 1010.0
20260509081548 57 330 3.5 8.7 0.00 0.00 0.00 84 1010.2
20260509080053 57 347 4.3 7.0 0.00 0.00 0.00 84 1010.3
20260509074544 56 334 3.5 8.7 0.00 0.00 0.00 84 1010.5
20260509073045 55 25 3.5 8.7 0.00 0.00 0.00 85 1010.4
20260509071540 56 6 4.3 7.0 0.00 0.00 0.00 84 1010.7
20260509070045 56 76 2.6 7.8 0.00 0.00 0.00 84 1010.5
20260509064554 56 1 2.6 6.1 0.00 0.00 0.00 86 1010.6
20260509063046 55 21 3.5 7.0 0.00 0.00 0.00 86 1010.3
20260509061544 54 324 1.7 4.3 0.00 0.00 0.00 88 1010.5
20260509060047 54 327 0.9 3.5 0.00 0.00 0.00 88 1010.4
20260509054547 53 333 2.6 4.3 0.00 0.00 0.00 88 1010.6
20260509053047 53 335 0.9 3.5 0.00 0.00 0.00 88 1010.7
20260509051548 53 330 0.9 1.7 0.00 0.00 0.00 88 1010.7
20260509050051 53 323 0.9 3.5 0.00 0.00 0.00 88 1010.8
20260509044549 52 311 0.9 3.5 0.00 0.00 0.00 88 1010.8
20260509043048 52 331 0.9 3.5 0.00 0.00 0.00 88 1010.9
20260509041554 52 25 0.9 2.6 0.00 0.00 0.00 87 1011.0
20260509040052 53 347 0.9 2.6 0.00 0.00 0.00 86 1011.0
20260509034549 53 0 0.0 2.6 0.00 0.00 0.00 87 1011.1
20260509033100 53 330 0.0 2.6 0.00 0.00 0.00 88 1011.2
20260509031548 53 311 0.0 2.6 0.00 0.00 0.00 88 1011.3
20260509030049 53 5 0.0 1.7 0.00 0.00 0.00 88 1011.4
20260509024543 53 342 0.0 1.7 0.00 0.00 0.00 88 1011.6
20260509023046 54 339 0.0 1.7 0.00 0.00 0.00 89 1011.7
20260509021548 54 313 0.9 1.7 0.00 0.00 0.00 89 1012.0
20260509020045 54 318 0.0 0.9 0.00 0.00 0.00 89 1012.0
20260509014545 54 314 0.0 1.7 0.00 0.00 0.00 89 1012.2
20260509013053 54 321 0.0 1.7 0.00 0.00 0.00 88 1012.5
20260509011542 54 0 0.0 0.9 0.00 0.00 0.00 87 1012.6
20260509010046 55 304 0.9 3.5 0.00 0.00 0.00 87 1012.9
20260509004546 55 313 2.6 5.2 0.00 0.00 0.00 86 1013.0
20260509003045 54 309 0.0 0.9 0.00 0.00 0.00 85 1013.0
20260509001543 54 0 0.0 0.0 0.00 0.00 0.00 84 1013.2
20260509000046 54 0 0.0 0.0 0.00 0.00 0.00 85 1013.3
20260508234540 54 0 0.0 0.0 0.00 0.00 0.00 86 1013.4
20260508233050 54 0 0.0 0.0 0.00 0.00 0.00 87 1013.5
20260508231551 55 0 0.0 0.0 0.00 0.00 0.00 87 1013.4
20260508230053 55 0 0.0 0.9 0.00 0.00 0.00 85 1013.5
20260508224543 55 0 0.0 0.0 0.00 0.00 0.00 81 1013.6
20260508223047 55 0 0.0 0.0 0.00 0.00 0.00 80 1013.8
20260508221539 55 0 0.0 0.9 0.00 0.00 0.00 77 1013.9
20260508220055 56 0 0.0 0.0 0.00 0.00 0.00 76 1014.0
20260508214546 56 0 0.0 0.0 0.00 0.00 0.00 75 1014.2
20260508213041 57 0 0.0 0.0 0.00 0.00 0.00 74 1014.4
20260508211550 57 0 0.0 0.9 0.00 0.00 0.00 74 1014.7
20260508210050 57 205 0.0 0.0 0.00 0.00 0.00 73 1014.7
20260508204550 58 0 0.0 0.9 0.00 0.00 0.00 73 1014.8
20260508203054 60 0 0.0 2.6 0.00 0.00 0.00 75 1014.8